Home   Weather   Gurdaspur   Past weeks

Flag for India Past Weather in Gurdaspur, Punjab, India — Yesterday and Last 2 Weeks

Now
50 °F

Fog.


Feels Like: 50 °F
Forecast: 40 / 69 °F
Wind: No wind

Location: Amritsar Airport

Current Time: Jan 18, 2017 at 1:52:42 pm

Latest Report: Jan 18, 2017 at 1:30 pm


Visibility: 1 mi

Pressure: 30.24 "Hg

Humidity: 100%

Dew Point: 50 °F

Location of GurdaspurLocation

Past Weather in Gurdaspur — Graph

°F

Gurdaspur Temperature Yesterday

Maximum temperature yesterday: 57 °F (at 2:00 pm)
Minimum temperature yesterday: 43 °F (at 12:00 am)
Average temperature yesterday: 49 °F

High & Low Weather Summary for the Past Weeks

 TemperatureHumidityPressure
High70 °F (Jan 4, 2:30 pm)100% (Jan 3, 6:30 pm)30.27 "Hg (Jan 3, 6:30 pm)
Low34 °F (Jan 11, 7:00 am)30% (Jan 11, 3:00 pm)29.86 "Hg (Jan 6, 1:30 pm)
Average52 °F89%30.03 "Hg
* Reported Jan 3 12:30 pm — Jan 18 12:30 pm, Gurdaspur, Weather by CustomWeather, © 2017

Note: Actual official high and low records may vary slightly from our data, if they occured in-between our weather recording intervals... More about our weather records

Advertising

Gurdaspur Weather History for the Previous 24 Hours

Scroll right to see more
 ConditionsComfort  
Time TempWeatherWind HumidityBarometerVisibility
12:30 pm
Wed, Jan 18
48 °FFog.No wind100%30.27 "Hg1 mi
11:30 am48 °FFog.No wind100%30.27 "Hg1 mi
11:00 am48 °FFog.No wind100%30.27 "Hg1 mi
10:30 am46 °FFog.No wind100%30.27 "Hg1 mi
10:00 am46 °FFog.No wind100%30.27 "Hg1 mi
9:30 am46 °FFog.No wind100%30.24 "Hg0 mi
9:00 am46 °FFog.No wind100%30.24 "Hg0 mi
8:00 am45 °FFog.No wind100%30.18 "Hg0 mi
7:30 am45 °FFog.No wind100%30.18 "Hg0 mi
7:00 am45 °FFog.No wind100%30.18 "Hg0 mi
6:30 am46 °FFog.No wind100%30.15 "Hg0 mi
6:00 am46 °FFog.No wind100%30.15 "Hg0 mi
5:30 am46 °FFog.No wind100%30.15 "Hg0 mi
5:00 am46 °FFog.No wind100%30.12 "Hg0 mi
4:30 am46 °FFog.No wind100%30.12 "Hg0 mi
4:00 am46 °FFog.No wind100%30.12 "Hg0 mi
3:30 am46 °FFog.No wind100%30.12 "Hg0 mi
3:00 am46 °FFog.No wind100%30.12 "Hg0 mi
2:30 am45 °FFog.No wind100%30.12 "Hg0 mi
2:00 am43 °FFog.No wind100%30.12 "Hg0 mi
1:30 am43 °FFog.No wind100%30.12 "Hg0 mi
1:00 am43 °FFog.No wind100%30.12 "Hg0 mi
12:30 am46 °FFog.No wind100%30.12 "Hg1 mi
12:00 am46 °FFog.No wind100%30.12 "Hg1 mi
11:30 pm
Tue, Jan 17
46 °FFog.No wind100%30.12 "Hg1 mi
10:30 pm46 °FFog.No wind100%30.12 "Hg1 mi
10:00 pm48 °FFog.No wind100%30.12 "Hg1 mi
9:30 pm48 °FFog.No wind100%30.12 "Hg1 mi
9:00 pm50 °FFog.No wind100%30.09 "Hg1 mi
8:30 pm50 °FFog.No wind100%30.09 "Hg1 mi
8:00 pm50 °FFog.No wind100%30.09 "Hg1 mi
7:30 pm50 °FFog.No wind100%30.07 "Hg1 mi
7:00 pm52 °FFog.No wind100%30.07 "Hg1 mi
6:30 pm54 °FFog.No wind100%30.07 "Hg2 mi
6:00 pm54 °FFog.No wind100%30.04 "Hg2 mi
5:30 pm55 °FFog.No wind100%30.04 "Hg2 mi
5:00 pm57 °FFog.No wind100%30.04 "Hg2 mi
4:30 pm57 °FFog.No wind100%30.04 "Hg1 mi
4:00 pm57 °FFog.No wind100%30.04 "Hg1 mi
3:30 pm57 °FFog.No wind100%30.01 "Hg1 mi
3:00 pm57 °FFog.2 mph100%30.04 "Hg1 mi
2:30 pm57 °FFog.2 mph100%30.04 "Hg1 mi
2:00 pm57 °FFog.2 mph100%30.04 "Hg1 mi
Weather by CustomWeather, © 2017

See weather overviewHow to use our weather pages